STARLINK-32800 (62743 NORAD) Tracking and Keplerian Element Data

This shows tracking and keplerian element data for the satellite.

Feedback or suggestion? Click here.




ElementValue
Catalog62743
NameSTARLINK-32800
Epoch Orbit221
Epoch Day35.25001157
Epoch Year2025
RAAN253.8556
Inclination42.9997
Eccentricity0.0001744
Argument of Perigee268.3977
Mean Anonmoly104.6326
Mean Motion15.6433626
Decay Rate-0.01468669
L11 62743U 25014J 25035.25001157 -.01468669 00000+0 -16662-1 0 9993
L22 62743 42.9997 253.8556 0001744 268.3977 104.6326 15.64336260 2219



Live tracking and technical data element details for STARLINK-32800 (NORAD 62743). STARLINK-32800 can be tracked NOW for your location showing map with azimuth and elevation plus other details from your city location.







IsCatalogInMostPopularTable: catalog: 62743, numindb: 4
Update: records affected: 1



GetName: 62743 STARLINK-32800

Hit Count: updated at: Sun, 09 Feb 2025 15:06:28 GMT